| time (UTC) | temp C | wind direction | speed KPH | gust KPH | rain 1hr cm | rain 24hr cm | rain mn cm | humidity % | barometer mb |
| 20260904021206 | 21 | 202 | 0.0 | 0.0 | 0.00 | 0.00 | 0.00 | 24 | 928.5 |
| 20260904020702 | 21 | 180 | 0.0 | 0.0 | 0.00 | 0.00 | 0.00 | 24 | 928.6 |
| 20260904020201 | 21 | 112 | 0.0 | 0.0 | 0.00 | 0.00 | 0.00 | 24 | 928.4 |
| 20260904015701 | 21 | 160 | 0.0 | 0.0 | 0.00 | 0.00 | 0.00 | 24 | 928.5 |
| 20260904015201 | 21 | 104 | 0.0 | 0.0 | 0.00 | 0.00 | 0.00 | 23 | 928.6 |
| 20260904014659 | 22 | 279 | 0.0 | 0.0 | 0.00 | 0.00 | 0.00 | 23 | 928.5 |
| 20260904014154 | 22 | 208 | 0.0 | 1.6 | 0.00 | 0.00 | 0.00 | 22 | 928.5 |
| 20260904013652 | 22 | 209 | 0.0 | 3.2 | 0.00 | 0.00 | 0.00 | 22 | 928.3 |
| 20260904013147 | 22 | 250 | 0.0 | 9.7 | 0.00 | 0.00 | 0.00 | 21 | 928.5 |
| 20260904012643 | 23 | 240 | 1.6 | 4.8 | 0.00 | 0.00 | 0.00 | 21 | 928.4 |
| 20260904012141 | 23 | 255 | 0.0 | 8.0 | 0.00 | 0.00 | 0.00 | 21 | 928.6 |
| 20260904011640 | 23 | 233 | 1.6 | 20.9 | 0.00 | 0.00 | 0.00 | 20 | 928.9 |
| 20260904011137 | 23 | 252 | 8.0 | 12.9 | 0.00 | 0.00 | 0.00 | 20 | 928.7 |
| 20260904010632 | 23 | 258 | 4.8 | 11.3 | 0.00 | 0.00 | 0.00 | 20 | 928.8 |
| 20260904010129 | 23 | 230 | 0.0 | 16.1 | 0.00 | 0.00 | 0.00 | 20 | 928.5 |
| 20260904005623 | 23 | 230 | 0.0 | 8.0 | 0.00 | 0.00 | 0.00 | 20 | 928.9 |
| 20260904005119 | 24 | 239 | 1.6 | 8.0 | 0.00 | 0.00 | 0.00 | 20 | 928.9 |
| 20260904004609 | 24 | 221 | 3.2 | 12.9 | 0.00 | 0.00 | 0.00 | 20 | 928.9 |
| 20260904004109 | 24 | 294 | 8.0 | 20.9 | 0.00 | 0.00 | 0.00 | 20 | 929.3 |
| 20260904003605 | 25 | 232 | 1.6 | 16.1 | 0.00 | 0.00 | 0.00 | 19 | 929.3 |
| 20260904003100 | 25 | 203 | 6.4 | 20.9 | 0.00 | 0.00 | 0.00 | 19 | 929.6 |
| 20260904002556 | 25 | 216 | 22.5 | 32.2 | 0.00 | 0.00 | 0.00 | 19 | 929.4 |
| 20260904002055 | 25 | 181 | 9.7 | 27.4 | 0.00 | 0.00 | 0.00 | 18 | 929.5 |
| 20260904001551 | 25 | 236 | 12.9 | 17.7 | 0.00 | 0.00 | 0.00 | 19 | 929.6 |
| 20260904001050 | 25 | 238 | 9.7 | 25.7 | 0.00 | 0.00 | 0.00 | 19 | 930.1 |
| 20260904000545 | 25 | 214 | 12.9 | 25.7 | 0.00 | 0.00 | 0.00 | 19 | 930.0 |
| 20260904000042 | 25 | 226 | 11.3 | 20.9 | 0.00 | 0.00 | 0.00 | 19 | 929.5 |
| 20260903235541 | 25 | 318 | 0.0 | 25.7 | 0.00 | 0.00 | 0.00 | 19 | 929.6 |
| 20260903235037 | 25 | 198 | 8.0 | 27.4 | 0.00 | 0.00 | 0.00 | 19 | 929.6 |
| 20260903234532 | 25 | 191 | 17.7 | 37.0 | 0.00 | 0.00 | 0.00 | 18 | 929.9 |
| 20260903234027 | 25 | 227 | 9.7 | 24.1 | 0.00 | 0.00 | 0.00 | 18 | 929.9 |
| 20260903233523 | 25 | 244 | 8.0 | 17.7 | 0.00 | 0.00 | 0.00 | 19 | 929.6 |
| 20260903233020 | 25 | 214 | 4.8 | 12.9 | 0.00 | 0.00 | 0.00 | 19 | 929.7 |
| 20260903232515 | 25 | 272 | 8.0 | 27.4 | 0.00 | 0.00 | 0.00 | 20 | 930.1 |
| 20260903232014 | 25 | 259 | 6.4 | 20.9 | 0.00 | 0.00 | 0.00 | 20 | 930.1 |
| 20260903231509 | 25 | 231 | 17.7 | 24.1 | 0.00 | 0.00 | 0.00 | 20 | 929.9 |
| 20260903231003 | 25 | 345 | 12.9 | 25.7 | 0.00 | 0.00 | 0.00 | 20 | 929.6 |
| 20260903230459 | 25 | 218 | 8.0 | 22.5 | 0.00 | 0.00 | 0.00 | 20 | 929.7 |
| 20260903225951 | 25 | 151 | 8.0 | 17.7 | 0.00 | 0.00 | 0.00 | 20 | 929.5 |
| 20260903225445 | 25 | 200 | 8.0 | 20.9 | 0.00 | 0.00 | 0.00 | 21 | 929.9 |
| 20260903224941 | 25 | 219 | 0.0 | 24.1 | 0.00 | 0.00 | 0.00 | 21 | 929.6 |
| 20260903224437 | 25 | 261 | 11.3 | 32.2 | 0.00 | 0.00 | 0.00 | 21 | 929.7 |
| 20260903223933 | 25 | 249 | 4.8 | 16.1 | 0.00 | 0.00 | 0.00 | 20 | 929.9 |
| 20260903223432 | 25 | 155 | 9.7 | 20.9 | 0.00 | 0.00 | 0.00 | 20 | 930.1 |
| 20260903222930 | 25 | 110 | 0.0 | 12.9 | 0.00 | 0.00 | 0.00 | 20 | 930.1 |
| 20260903222426 | 25 | 259 | 14.5 | 24.1 | 0.00 | 0.00 | 0.00 | 19 | 930.4 |
| 20260903221920 | 25 | 276 | 12.9 | 24.1 | 0.00 | 0.00 | 0.00 | 19 | 930.1 |
| 20260903221420 | 25 | 256 | 11.3 | 27.4 | 0.00 | 0.00 | 0.00 | 19 | 930.4 |
| 20260903220917 | 25 | 237 | 16.1 | 27.4 | 0.00 | 0.00 | 0.00 | 19 | 930.2 |
| 20260903220412 | 26 | 234 | 16.1 | 20.9 | 0.00 | 0.00 | 0.00 | 19 | 930.2 |
| 20260903215910 | 25 | 356 | 6.4 | 11.3 | 0.00 | 0.00 | 0.00 | 20 | 930.3 |
| 20260903215407 | 25 | 199 | 11.3 | 29.0 | 0.00 | 0.00 | 0.00 | 19 | 930.5 |
| 20260903214905 | 25 | 262 | 8.0 | 20.9 | 0.00 | 0.00 | 0.00 | 19 | 930.9 |
| 20260903214401 | 25 | 261 | 22.5 | 32.2 | 0.00 | 0.00 | 0.00 | 19 | 930.7 |
| 20260903213901 | 25 | 186 | 0.0 | 9.7 | 0.00 | 0.00 | 0.00 | 20 | 930.9 |
| 20260903213356 | 24 | 269 | 4.8 | 29.0 | 0.00 | 0.00 | 0.00 | 20 | 930.8 |
| 20260903212852 | 25 | 236 | 11.3 | 14.5 | 0.00 | 0.00 | 0.00 | 19 | 930.5 |
| 20260903212347 | 25 | 192 | 6.4 | 14.5 | 0.00 | 0.00 | 0.00 | 20 | 930.4 |
| 20260903211846 | 25 | 261 | 14.5 | 27.4 | 0.00 | 0.00 | 0.00 | 18 | 930.4 |
| 20260903211343 | 25 | 177 | 0.0 | 8.0 | 0.00 | 0.00 | 0.00 | 20 | 930.5 |
| 20260903210839 | 24 | 232 | 14.5 | 25.7 | 0.00 | 0.00 | 0.00 | 19 | 930.9 |
| 20260903210333 | 24 | 218 | 6.4 | 12.9 | 0.00 | 0.00 | 0.00 | 20 | 930.9 |
| 20260903205833 | 25 | 313 | 8.0 | 20.9 | 0.00 | 0.00 | 0.00 | 19 | 930.8 |
| 20260903205333 | 24 | 256 | 0.0 | 11.3 | 0.00 | 0.00 | 0.00 | 21 | 930.8 |
| 20260903204828 | 24 | 257 | 8.0 | 16.1 | 0.00 | 0.00 | 0.00 | 19 | 930.9 |
| 20260903204324 | 25 | 187 | 8.0 | 16.1 | 0.00 | 0.00 | 0.00 | 19 | 930.8 |
| 20260903203819 | 24 | 196 | 12.9 | 16.1 | 0.00 | 0.00 | 0.00 | 18 | 931.0 |
| 20260903203315 | 24 | 216 | 12.9 | 25.7 | 0.00 | 0.00 | 0.00 | 19 | 930.9 |
| 20260903202814 | 23 | 245 | 11.3 | 16.1 | 0.00 | 0.00 | 0.00 | 19 | 931.3 |
| 20260903202311 | 24 | 221 | 11.3 | 27.4 | 0.00 | 0.00 | 0.00 | 19 | 931.1 |
| 20260903201810 | 24 | 194 | 14.5 | 20.9 | 0.00 | 0.00 | 0.00 | 18 | 931.3 |
| 20260903201305 | 23 | 220 | 12.9 | 25.7 | 0.00 | 0.00 | 0.00 | 19 | 931.6 |
| 20260903200804 | 23 | 184 | 6.4 | 12.9 | 0.00 | 0.00 | 0.00 | 18 | 931.6 |
| 20260903200259 | 23 | 283 | 0.0 | 16.1 | 0.00 | 0.00 | 0.00 | 20 | 931.5 |
| 20260903195754 | 23 | 232 | 16.1 | 20.9 | 0.00 | 0.00 | 0.00 | 19 | 931.3 |
| 20260903195250 | 23 | 186 | 9.7 | 24.1 | 0.00 | 0.00 | 0.00 | 19 | 931.2 |
| 20260903194745 | 23 | 239 | 9.7 | 17.7 | 0.00 | 0.00 | 0.00 | 20 | 931.5 |
| 20260903194241 | 23 | 241 | 16.1 | 20.9 | 0.00 | 0.00 | 0.00 | 19 | 931.7 |
| 20260903193736 | 23 | 206 | 12.9 | 24.1 | 0.00 | 0.00 | 0.00 | 18 | 931.7 |
| 20260903193232 | 23 | 205 | 11.3 | 20.9 | 0.00 | 0.00 | 0.00 | 19 | 931.6 |
| 20260903192728 | 23 | 252 | 16.1 | 20.9 | 0.00 | 0.00 | 0.00 | 19 | 931.6 |
| 20260903192223 | 23 | 192 | 6.4 | 9.7 | 0.00 | 0.00 | 0.00 | 20 | 931.6 |
| 20260903191719 | 23 | 203 | 6.4 | 17.7 | 0.00 | 0.00 | 0.00 | 19 | 931.5 |
| 20260903191215 | 22 | 184 | 6.4 | 20.9 | 0.00 | 0.00 | 0.00 | 19 | 931.8 |
| 20260903190709 | 22 | 227 | 4.8 | 22.5 | 0.00 | 0.00 | 0.00 | 19 | 931.5 |
| 20260903190209 | 22 | 198 | 9.7 | 27.4 | 0.00 | 0.00 | 0.00 | 20 | 931.5 |
| 20260903185704 | 22 | 250 | 11.3 | 20.9 | 0.00 | 0.00 | 0.00 | 19 | 931.8 |
| 20260903185158 | 22 | 206 | 9.7 | 17.7 | 0.00 | 0.00 | 0.00 | 20 | 931.9 |
| 20260903184655 | 22 | 205 | 8.0 | 17.7 | 0.00 | 0.00 | 0.00 | 20 | 931.9 |
| 20260903184151 | 22 | 262 | 14.5 | 22.5 | 0.00 | 0.00 | 0.00 | 20 | 931.9 |
| 20260903183650 | 22 | 210 | 16.1 | 17.7 | 0.00 | 0.00 | 0.00 | 19 | 932.1 |
| 20260903183145 | 22 | 248 | 1.6 | 22.5 | 0.00 | 0.00 | 0.00 | 21 | 931.9 |
| 20260903182643 | 22 | 233 | 17.7 | 27.4 | 0.00 | 0.00 | 0.00 | 19 | 931.8 |
| 20260903182140 | 22 | 228 | 20.9 | 24.1 | 0.00 | 0.00 | 0.00 | 18 | 931.8 |
| 20260903181637 | 22 | 237 | 14.5 | 17.7 | 0.00 | 0.00 | 0.00 | 19 | 931.8 |
| 20260903181132 | 22 | 217 | 1.6 | 12.9 | 0.00 | 0.00 | 0.00 | 20 | 932.1 |
| 20260903180628 | 22 | 158 | 17.7 | 25.7 | 0.00 | 0.00 | 0.00 | 19 | 932.1 |
| 20260903180122 | 22 | 196 | 9.7 | 17.7 | 0.00 | 0.00 | 0.00 | 19 | 932.1 |
| 20260903175621 | 22 | 203 | 9.7 | 22.5 | 0.00 | 0.00 | 0.00 | 19 | 932.4 |
| 20260903175121 | 21 | 254 | 11.3 | 22.5 | 0.00 | 0.00 | 0.00 | 20 | 932.5 |
| 20260903174615 | 21 | 258 | 14.5 | 20.9 | 0.00 | 0.00 | 0.00 | 19 | 932.4 |
| 20260903174110 | 22 | 251 | 6.4 | 12.9 | 0.00 | 0.00 | 0.00 | 21 | 932.3 |
| 20260903173605 | 21 | 164 | 11.3 | 25.7 | 0.00 | 0.00 | 0.00 | 20 | 932.4 |
| 20260903173102 | 21 | 275 | 16.1 | 27.4 | 0.00 | 0.00 | 0.00 | 19 | 932.4 |
| 20260903172556 | 21 | 242 | 12.9 | 20.9 | 0.00 | 0.00 | 0.00 | 19 | 932.3 |
| 20260903172052 | 21 | 224 | 9.7 | 32.2 | 0.00 | 0.00 | 0.00 | 20 | 932.4 |
| 20260903171552 | 21 | 253 | 9.7 | 20.9 | 0.00 | 0.00 | 0.00 | 19 | 932.3 |
| 20260903171048 | 21 | 220 | 8.0 | 14.5 | 0.00 | 0.00 | 0.00 | 19 | 932.4 |
| 20260903170546 | 21 | 243 | 11.3 | 14.5 | 0.00 | 0.00 | 0.00 | 20 | 932.3 |
| 20260903170042 | 21 | 347 | 6.4 | 22.5 | 0.00 | 0.00 | 0.00 | 20 | 932.3 |
| 20260903165539 | 21 | 221 | 0.0 | 16.1 | 0.00 | 0.00 | 0.00 | 21 | 932.3 |
| 20260903165035 | 21 | 201 | 12.9 | 16.1 | 0.00 | 0.00 | 0.00 | 20 | 932.1 |
| 20260903164534 | 21 | 202 | 6.4 | 8.0 | 0.00 | 0.00 | 0.00 | 21 | 932.3 |
| 20260903164030 | 20 | 308 | 4.8 | 14.5 | 0.00 | 0.00 | 0.00 | 22 | 932.1 |
| 20260903163525 | 20 | 218 | 12.9 | 17.7 | 0.00 | 0.00 | 0.00 | 21 | 932.3 |
| 20260903163021 | 20 | 249 | 16.1 | 20.9 | 0.00 | 0.00 | 0.00 | 20 | 932.3 |
| 20260903162517 | 20 | 265 | 9.7 | 20.9 | 0.00 | 0.00 | 0.00 | 21 | 932.7 |
| 20260903162013 | 20 | 240 | 0.0 | 20.9 | 0.00 | 0.00 | 0.00 | 21 | 932.1 |
| 20260903161508 | 20 | 264 | 11.3 | 24.1 | 0.00 | 0.00 | 0.00 | 22 | 932.1 |
| 20260903161005 | 19 | 241 | 11.3 | 14.5 | 0.00 | 0.00 | 0.00 | 21 | 932.3 |
| 20260903160503 | 18 | 141 | 12.9 | 17.7 | 0.00 | 0.00 | 0.00 | 23 | 932.0 |
| 20260903160002 | 17 | 187 | 0.0 | 0.0 | 0.00 | 0.00 | 0.00 | 32 | 932.1 |
| 20260903155456 | 17 | 87 | 0.0 | 0.0 | 0.00 | 0.00 | 0.00 | 34 | 932.1 |
| 20260903154953 | 17 | 38 | 0.0 | 0.0 | 0.00 | 0.00 | 0.00 | 34 | 932.3 |
| 20260903154448 | 16 | 1 | 1.6 | 8.0 | 0.00 | 0.00 | 0.00 | 32 | 932.1 |
| 20260903153944 | 16 | 30 | 0.0 | 0.0 | 0.00 | 0.00 | 0.00 | 32 | 932.5 |
| 20260903153440 | 16 | 4 | 0.0 | 0.0 | 0.00 | 0.00 | 0.00 | 33 | 932.5 |
| 20260903152935 | 15 | 14 | 0.0 | 0.0 | 0.00 | 0.00 | 0.00 | 36 | 932.3 |
| 20260903152431 | 15 | 18 | 0.0 | 0.0 | 0.00 | 0.00 | 0.00 | 35 | 932.6 |
| 20260903151927 | 15 | 19 | 0.0 | 0.0 | 0.00 | 0.00 | 0.00 | 36 | 932.6 |
| 20260903151416 | 15 | 16 | 0.0 | 0.0 | 0.00 | 0.00 | 0.00 | 36 | 932.6 |
| 20260903150916 | 15 | 12 | 0.0 | 0.0 | 0.00 | 0.00 | 0.00 | 34 | 932.6 |
| 20260903150410 | 14 | 29 | 0.0 | 0.0 | 0.00 | 0.00 | 0.00 | 35 | 932.9 |
| 20260903145905 | 14 | 38 | 0.0 | 0.0 | 0.00 | 0.00 | 0.00 | 38 | 932.9 |
| 20260903145400 | 14 | 53 | 0.0 | 0.0 | 0.00 | 0.00 | 0.00 | 41 | 932.6 |
| 20260903144859 | 13 | 64 | 0.0 | 0.0 | 0.00 | 0.00 | 0.00 | 47 | 932.7 |
| 20260903144355 | 12 | 83 | 0.0 | 0.0 | 0.00 | 0.00 | 0.00 | 48 | 932.6 |
| 20260903143850 | 12 | 63 | 0.0 | 3.2 | 0.00 | 0.00 | 0.00 | 50 | 932.4 |
| 20260903143347 | 11 | 64 | 0.0 | 3.2 | 0.00 | 0.00 | 0.00 | 52 | 932.1 |
| 20260903142842 | 10 | 48 | 0.0 | 3.2 | 0.00 | 0.00 | 0.00 | 55 | 932.0 |
| 20260903142338 | 10 | 67 | 0.0 | 1.6 | 0.00 | 0.00 | 0.00 | 51 | 932.0 |
| 20260903141834 | 10 | 83 | 0.0 | 0.0 | 0.00 | 0.00 | 0.00 | 56 | 931.8 |
| 20260903141330 | 9 | 54 | 0.0 | 0.0 | 0.00 | 0.00 | 0.00 | 57 | 931.8 |
| 20260903140830 | 8 | 70 | 0.0 | 0.0 | 0.00 | 0.00 | 0.00 | 55 | 931.7 |
| 20260903140325 | 8 | 81 | 0.0 | 1.6 | 0.00 | 0.00 | 0.00 | 57 | 931.7 |
| 20260903135821 | 7 | 85 | 0.0 | 4.8 | 0.00 | 0.00 | 0.00 | 56 | 931.5 |
| 20260903135316 | 7 | 83 | 0.0 | 0.0 | 0.00 | 0.00 | 0.00 | 58 | 931.7 |
| 20260903134814 | 7 | 77 | 0.0 | 1.6 | 0.00 | 0.00 | 0.00 | 58 | 931.5 |
| 20260903134310 | 7 | 47 | 0.0 | 0.0 | 0.00 | 0.00 | 0.00 | 57 | 931.5 |
| 20260903133808 | 6 | 59 | 0.0 | 0.0 | 0.00 | 0.00 | 0.00 | 59 | 931.6 |
| 20260903133304 | 6 | 82 | 0.0 | 3.2 | 0.00 | 0.00 | 0.00 | 59 | 931.5 |
| 20260903132804 | 6 | 70 | 0.0 | 1.6 | 0.00 | 0.00 | 0.00 | 59 | 931.3 |
| 20260903132259 | 6 | 81 | 0.0 | 0.0 | 0.00 | 0.00 | 0.00 | 59 | 931.2 |
| 20260903131754 | 6 | 61 | 0.0 | 0.0 | 0.00 | 0.00 | 0.00 | 61 | 931.1 |
| 20260903131253 | 6 | 77 | 4.8 | 4.8 | 0.00 | 0.00 | 0.00 | 62 | 931.1 |
| 20260903130748 | 5 | 73 | 0.0 | 0.0 | 0.00 | 0.00 | 0.00 | 64 | 931.1 |
| 20260903130243 | 5 | 73 | 0.0 | 0.0 | 0.00 | 0.00 | 0.00 | 64 | 931.0 |
| 20260903125741 | 5 | 82 | 0.0 | 1.6 | 0.00 | 0.00 | 0.00 | 64 | 930.9 |
| 20260903125237 | 5 | 66 | 3.2 | 3.2 | 0.00 | 0.00 | 0.00 | 65 | 931.0 |
| 20260903124736 | 5 | 72 | 1.6 | 3.2 | 0.00 | 0.00 | 0.00 | 65 | 930.9 |
| 20260903124232 | 5 | 68 | 3.2 | 3.2 | 0.00 | 0.00 | 0.00 | 66 | 930.9 |
| 20260903123730 | 5 | 53 | 0.0 | 0.0 | 0.00 | 0.00 | 0.00 | 67 | 930.8 |
| 20260903123229 | 5 | 77 | 1.6 | 3.2 | 0.00 | 0.00 | 0.00 | 67 | 930.8 |
| 20260903122728 | 5 | 64 | 0.0 | 4.8 | 0.00 | 0.00 | 0.00 | 66 | 931.0 |
| 20260903122224 | 5 | 112 | 4.8 | 4.8 | 0.00 | 0.00 | 0.00 | 66 | 930.9 |
| 20260903121722 | 6 | 158 | 0.0 | 0.0 | 0.00 | 0.00 | 0.00 | 66 | 930.9 |
| 20260903121218 | 6 | 56 | 0.0 | 0.0 | 0.00 | 0.00 | 0.00 | 64 | 931.0 |
| 20260903120718 | 6 | 55 | 0.0 | 0.0 | 0.00 | 0.00 | 0.00 | 62 | 930.9 |
| 20260903120212 | 6 | 73 | 0.0 | 0.0 | 0.00 | 0.00 | 0.00 | 61 | 930.8 |
| 20260903115710 | 7 | 59 | 0.0 | 0.0 | 0.00 | 0.00 | 0.00 | 60 | 930.8 |
| 20260903115206 | 6 | 102 | 0.0 | 0.0 | 0.00 | 0.00 | 0.00 | 60 | 930.8 |
| 20260903114701 | 6 | 105 | 0.0 | 0.0 | 0.00 | 0.00 | 0.00 | 61 | 930.7 |
| 20260903114155 | 7 | 60 | 0.0 | 0.0 | 0.00 | 0.00 | 0.00 | 58 | 930.4 |
| 20260903113651 | 7 | 60 | 0.0 | 0.0 | 0.00 | 0.00 | 0.00 | 59 | 930.5 |
| 20260903113147 | 7 | 60 | 0.0 | 0.0 | 0.00 | 0.00 | 0.00 | 59 | 930.5 |
| 20260903112644 | 7 | 62 | 0.0 | 0.0 | 0.00 | 0.00 | 0.00 | 59 | 930.7 |
| 20260903112144 | 7 | 67 | 0.0 | 0.0 | 0.00 | 0.00 | 0.00 | 60 | 930.3 |
| 20260903111642 | 7 | 61 | 0.0 | 0.0 | 0.00 | 0.00 | 0.00 | 66 | 930.4 |
| 20260903111138 | 7 | 68 | 0.0 | 0.0 | 0.00 | 0.00 | 0.00 | 66 | 930.5 |
| 20260903110634 | 7 | 71 | 0.0 | 0.0 | 0.00 | 0.00 | 0.00 | 67 | 930.3 |
| 20260903110130 | 7 | 76 | 0.0 | 0.0 | 0.00 | 0.00 | 0.00 | 66 | 930.5 |
| 20260903105624 | 8 | 75 | 0.0 | 0.0 | 0.00 | 0.00 | 0.00 | 65 | 930.3 |
| 20260903105120 | 7 | 74 | 0.0 | 0.0 | 0.00 | 0.00 | 0.00 | 67 | 930.3 |
| 20260903104619 | 8 | 78 | 0.0 | 0.0 | 0.00 | 0.00 | 0.00 | 68 | 930.5 |
| 20260903104115 | 8 | 72 | 0.0 | 0.0 | 0.00 | 0.00 | 0.00 | 67 | 930.2 |
| 20260903103610 | 8 | 75 | 0.0 | 0.0 | 0.00 | 0.00 | 0.00 | 69 | 930.4 |
| 20260903103107 | 8 | 55 | 0.0 | 0.0 | 0.00 | 0.00 | 0.00 | 68 | 930.4 |
| 20260903102602 | 8 | 60 | 0.0 | 0.0 | 0.00 | 0.00 | 0.00 | 67 | 930.4 |
| 20260903102101 | 8 | 69 | 0.0 | 0.0 | 0.00 | 0.00 | 0.00 | 67 | 930.4 |
| 20260903101555 | 8 | 60 | 0.0 | 0.0 | 0.00 | 0.00 | 0.00 | 67 | 930.5 |
| 20260903101051 | 8 | 67 | 0.0 | 0.0 | 0.00 | 0.00 | 0.00 | 65 | 930.4 |
| 20260903100551 | 9 | 53 | 0.0 | 0.0 | 0.00 | 0.00 | 0.00 | 66 | 930.3 |
| 20260903100050 | 9 | 50 | 0.0 | 0.0 | 0.00 | 0.00 | 0.00 | 66 | 930.3 |
| 20260903095548 | 9 | 50 | 0.0 | 0.0 | 0.00 | 0.00 | 0.00 | 65 | 930.8 |
| 20260903095043 | 8 | 51 | 0.0 | 0.0 | 0.00 | 0.00 | 0.00 | 65 | 930.5 |
| 20260903094542 | 9 | 52 | 0.0 | 0.0 | 0.00 | 0.00 | 0.00 | 63 | 930.7 |
| 20260903094038 | 10 | 52 | 0.0 | 0.0 | 0.00 | 0.00 | 0.00 | 62 | 930.7 |
| 20260903093533 | 10 | 53 | 0.0 | 0.0 | 0.00 | 0.00 | 0.00 | 60 | 930.3 |
| 20260903093029 | 9 | 70 | 0.0 | 0.0 | 0.00 | 0.00 | 0.00 | 65 | 930.4 |
| 20260903092528 | 9 | 56 | 0.0 | 0.0 | 0.00 | 0.00 | 0.00 | 68 | 930.5 |
| 20260903092028 | 9 | 63 | 0.0 | 0.0 | 0.00 | 0.00 | 0.00 | 65 | 930.2 |
| 20260903091527 | 9 | 70 | 0.0 | 0.0 | 0.00 | 0.00 | 0.00 | 63 | 930.3 |
| 20260903091026 | 10 | 73 | 0.0 | 0.0 | 0.00 | 0.00 | 0.00 | 63 | 930.4 |
| 20260903090523 | 10 | 63 | 0.0 | 0.0 | 0.00 | 0.00 | 0.00 | 63 | 930.4 |
| 20260903090021 | 10 | 54 | 0.0 | 0.0 | 0.00 | 0.00 | 0.00 | 64 | 930.4 |
| 20260903085519 | 10 | 53 | 0.0 | 0.0 | 0.00 | 0.00 | 0.00 | 63 | 930.4 |
| 20260903085015 | 10 | 67 | 0.0 | 0.0 | 0.00 | 0.00 | 0.00 | 62 | 930.4 |
| 20260903084513 | 10 | 67 | 0.0 | 0.0 | 0.00 | 0.00 | 0.00 | 62 | 930.4 |
| 20260903084008 | 10 | 70 | 0.0 | 0.0 | 0.00 | 0.00 | 0.00 | 61 | 930.3 |
| 20260903083504 | 10 | 73 | 0.0 | 0.0 | 0.00 | 0.00 | 0.00 | 61 | 930.1 |
| 20260903083004 | 10 | 83 | 0.0 | 0.0 | 0.00 | 0.00 | 0.00 | 61 | 930.3 |
| 20260903082458 | 10 | 59 | 0.0 | 0.0 | 0.00 | 0.00 | 0.00 | 61 | 930.3 |
| 20260903081954 | 10 | 61 | 0.0 | 0.0 | 0.00 | 0.00 | 0.00 | 62 | 930.4 |
| 20260903081449 | 10 | 68 | 0.0 | 0.0 | 0.00 | 0.00 | 0.00 | 61 | 930.4 |
| 20260903080945 | 10 | 71 | 0.0 | 0.0 | 0.00 | 0.00 | 0.00 | 60 | 930.4 |
| 20260903080441 | 10 | 68 | 0.0 | 0.0 | 0.00 | 0.00 | 0.00 | 62 | 930.1 |
| 20260903075937 | 10 | 81 | 0.0 | 0.0 | 0.00 | 0.00 | 0.00 | 62 | 930.3 |
| 20260903075432 | 10 | 103 | 0.0 | 0.0 | 0.00 | 0.00 | 0.00 | 63 | 930.3 |
| 20260903074927 | 10 | 77 | 0.0 | 0.0 | 0.00 | 0.00 | 0.00 | 62 | 930.3 |
| 20260903074426 | 10 | 68 | 0.0 | 0.0 | 0.00 | 0.00 | 0.00 | 62 | 930.4 |
| 20260903073921 | 10 | 83 | 0.0 | 1.6 | 0.00 | 0.00 | 0.00 | 62 | 930.2 |
| 20260903073416 | 10 | 58 | 0.0 | 0.0 | 0.00 | 0.00 | 0.00 | 62 | 930.2 |
| 20260903072912 | 10 | 109 | 0.0 | 0.0 | 0.00 | 0.00 | 0.00 | 61 | 930.2 |
| 20260903072408 | 10 | 67 | 0.0 | 0.0 | 0.00 | 0.00 | 0.00 | 61 | 930.3 |
| 20260903071905 | 10 | 73 | 0.0 | 0.0 | 0.00 | 0.00 | 0.00 | 58 | 930.3 |
| 20260903071401 | 10 | 91 | 0.0 | 4.8 | 0.00 | 0.00 | 0.00 | 59 | 930.1 |
| 20260903070856 | 10 | 116 | 0.0 | 3.2 | 0.00 | 0.00 | 0.00 | 59 | 930.2 |
| 20260903070350 | 10 | 81 | 0.0 | 0.0 | 0.00 | 0.00 | 0.00 | 61 | 930.3 |
| 20260903065845 | 10 | 65 | 0.0 | 0.0 | 0.00 | 0.00 | 0.00 | 59 | 930.3 |
| 20260903065344 | 10 | 57 | 0.0 | 0.0 | 0.00 | 0.00 | 0.00 | 60 | 930.2 |
| 20260903064838 | 10 | 67 | 0.0 | 0.0 | 0.00 | 0.00 | 0.00 | 60 | 930.4 |
| 20260903064334 | 10 | 61 | 0.0 | 0.0 | 0.00 | 0.00 | 0.00 | 61 | 930.3 |
| 20260903063829 | 10 | 67 | 0.0 | 0.0 | 0.00 | 0.00 | 0.00 | 59 | 930.4 |
| 20260903063324 | 10 | 55 | 0.0 | 0.0 | 0.00 | 0.00 | 0.00 | 59 | 930.2 |
| 20260903062820 | 10 | 61 | 0.0 | 0.0 | 0.00 | 0.00 | 0.00 | 60 | 930.2 |
| 20260903062320 | 10 | 69 | 0.0 | 0.0 | 0.00 | 0.00 | 0.00 | 60 | 930.1 |
| 20260903061817 | 10 | 55 | 0.0 | 0.0 | 0.00 | 0.00 | 0.00 | 60 | 930.2 |
| 20260903061315 | 10 | 64 | 0.0 | 0.0 | 0.00 | 0.00 | 0.00 | 59 | 930.1 |
| 20260903060812 | 10 | 118 | 0.0 | 0.0 | 0.00 | 0.00 | 0.00 | 57 | 930.0 |
| 20260903060311 | 10 | 53 | 0.0 | 0.0 | 0.00 | 0.00 | 0.00 | 57 | 930.0 |
| 20260903055808 | 10 | 199 | 0.0 | 0.0 | 0.00 | 0.00 | 0.00 | 61 | 930.2 |
| 20260903055306 | 10 | 43 | 0.0 | 1.6 | 0.00 | 0.00 | 0.00 | 59 | 929.9 |
| 20260903054756 | 10 | 54 | 0.0 | 0.0 | 0.00 | 0.00 | 0.00 | 60 | 929.7 |
| 20260903054251 | 11 | 35 | 0.0 | 0.0 | 0.00 | 0.00 | 0.00 | 55 | 930.0 |
| 20260903053748 | 11 | 67 | 0.0 | 0.0 | 0.00 | 0.00 | 0.00 | 54 | 929.9 |
| 20260903053248 | 11 | 66 | 0.0 | 0.0 | 0.00 | 0.00 | 0.00 | 55 | 930.0 |
| 20260903052743 | 11 | 60 | 0.0 | 0.0 | 0.00 | 0.00 | 0.00 | 54 | 929.9 |
| 20260903052239 | 11 | 82 | 0.0 | 0.0 | 0.00 | 0.00 | 0.00 | 54 | 930.0 |
| 20260903051734 | 11 | 71 | 0.0 | 0.0 | 0.00 | 0.00 | 0.00 | 52 | 930.0 |
| 20260903051230 | 11 | 64 | 0.0 | 0.0 | 0.00 | 0.00 | 0.00 | 52 | 930.1 |
| 20260903050725 | 11 | 85 | 0.0 | 0.0 | 0.00 | 0.00 | 0.00 | 53 | 930.1 |
| 20260903050224 | 11 | 87 | 0.0 | 0.0 | 0.00 | 0.00 | 0.00 | 54 | 930.0 |
| 20260903045719 | 11 | 81 | 0.0 | 0.0 | 0.00 | 0.00 | 0.00 | 53 | 930.2 |
| 20260903045215 | 11 | 51 | 0.0 | 0.0 | 0.00 | 0.00 | 0.00 | 52 | 930.1 |
| 20260903044711 | 11 | 82 | 0.0 | 3.2 | 0.00 | 0.00 | 0.00 | 53 | 930.2 |
| 20260903044206 | 12 | 54 | 0.0 | 0.0 | 0.00 | 0.00 | 0.00 | 49 | 930.1 |
| 20260903043703 | 12 | 58 | 0.0 | 0.0 | 0.00 | 0.00 | 0.00 | 49 | 930.3 |
| 20260903043202 | 12 | 80 | 1.6 | 4.8 | 0.00 | 0.00 | 0.00 | 48 | 930.1 |
| 20260903042701 | 12 | 79 | 4.8 | 12.9 | 0.00 | 0.00 | 0.00 | 48 | 930.2 |
| 20260903042156 | 12 | 60 | 0.0 | 0.0 | 0.00 | 0.00 | 0.00 | 49 | 930.5 |
| 20260903041653 | 12 | 74 | 1.6 | 4.8 | 0.00 | 0.00 | 0.00 | 52 | 930.4 |
| 20260903041148 | 13 | 71 | 0.0 | 0.0 | 0.00 | 0.00 | 0.00 | 49 | 930.3 |
| 20260903040648 | 13 | 58 | 0.0 | 0.0 | 0.00 | 0.00 | 0.00 | 50 | 930.2 |
| 20260903040144 | 13 | 107 | 0.0 | 0.0 | 0.00 | 0.00 | 0.00 | 52 | 930.2 |
| 20260903035640 | 13 | 98 | 0.0 | 0.0 | 0.00 | 0.00 | 0.00 | 53 | 930.1 |
| 20260903035135 | 13 | 49 | 0.0 | 0.0 | 0.00 | 0.00 | 0.00 | 51 | 929.7 |
| 20260903034630 | 13 | 42 | 0.0 | 0.0 | 0.00 | 0.00 | 0.00 | 49 | 929.5 |
| 20260903034125 | 15 | 61 | 0.0 | 0.0 | 0.00 | 0.00 | 0.00 | 46 | 929.5 |
| 20260903033620 | 13 | 73 | 0.0 | 0.0 | 0.00 | 0.00 | 0.00 | 48 | 929.4 |
| 20260903033115 | 13 | 100 | 0.0 | 0.0 | 0.00 | 0.00 | 0.00 | 47 | 929.9 |
| 20260903032610 | 14 | 33 | 0.0 | 3.2 | 0.00 | 0.00 | 0.00 | 46 | 929.9 |
| 20260903032105 | 14 | 44 | 0.0 | 0.0 | 0.00 | 0.00 | 0.00 | 44 | 930.0 |
| 20260903031600 | 14 | 51 | 0.0 | 0.0 | 0.00 | 0.00 | 0.00 | 46 | 930.0 |
| 20260903031055 | 14 | 22 | 0.0 | 0.0 | 0.00 | 0.00 | 0.00 | 48 | 930.0 |
| 20260903030550 | 16 | 41 | 0.0 | 0.0 | 0.00 | 0.00 | 0.00 | 45 | 929.9 |
| 20260903030047 | 16 | 65 | 0.0 | 0.0 | 0.00 | 0.00 | 0.00 | 38 | 929.7 |
| 20260903025541 | 15 | 54 | 0.0 | 0.0 | 0.00 | 0.00 | 0.00 | 40 | 929.7 |
| 20260903025037 | 15 | 11 | 0.0 | 0.0 | 0.00 | 0.00 | 0.00 | 42 | 929.9 |
| 20260903024536 | 15 | 21 | 0.0 | 0.0 | 0.00 | 0.00 | 0.00 | 45 | 929.7 |
| 20260903024031 | 16 | 21 | 0.0 | 0.0 | 0.00 | 0.00 | 0.00 | 45 | 930.1 |
| 20260903023527 | 16 | 359 | 0.0 | 0.0 | 0.00 | 0.00 | 0.00 | 43 | 930.0 |
| 20260903023022 | 16 | 36 | 0.0 | 0.0 | 0.00 | 0.00 | 0.00 | 39 | 930.0 |
| 20260903022521 | 16 | 35 | 0.0 | 0.0 | 0.00 | 0.00 | 0.00 | 42 | 930.1 |
| 20260903022020 | 17 | 35 | 0.0 | 0.0 | 0.00 | 0.00 | 0.00 | 41 | 930.0 |
| 20260903021515 | 18 | 35 | 0.0 | 0.0 | 0.00 | 0.00 | 0.00 | 35 | 930.1 |